Time,TemperatureF,DewpointF,PressureIn,WindDirection,WindDirectionDegrees,WindSpeedMPH,WindSpeedGustMPH,Humidity,HourlyPrecipIn,Conditions,Clouds,dailyrainin,SolarRadiationWatts/m^2,SoftwareType,DateUTC
2013-09-20 00:05:00,70.0,57.0,-100.00,ENE,69,7.0,11.0,63,0.00,,,0.00,0.000000,,2013-09-20 04:05:00,
2013-09-20 00:14:00,70.0,57.0,-100.00,ENE,69,7.0,11.0,63,0.00,,,0.00,0.000000,,2013-09-20 04:14:00,
2013-09-20 00:24:00,70.0,57.0,-100.00,ENE,69,7.0,11.0,63,0.00,,,0.00,0.000000,,2013-09-20 04:24:00,
2013-09-20 00:54:00,70.0,57.0,-100.00,ENE,70,8.0,11.0,63,0.00,,,0.00,0.000000,,2013-09-20 04:54:00,
2013-09-20 01:03:00,70.0,57.0,-100.00,ENE,70,8.0,11.0,63,0.00,,,0.00,0.000000,,2013-09-20 05:03:00,
2013-09-20 01:13:00,70.0,57.0,-100.00,ENE,70,8.0,11.0,63,0.00,,,0.00,0.000000,,2013-09-20 05:13:00,
2013-09-20 01:23:00,70.0,57.0,-100.00,ENE,70,8.0,11.0,63,0.00,,,0.00,0.000000,,2013-09-20 05:23:00,
2013-09-20 01:53:00,70.0,56.0,-100.00,ENE,67,4.0,11.0,62,0.00,,,0.00,0.000000,,2013-09-20 05:53:00,
2013-09-20 02:03:00,70.0,56.0,-100.00,ENE,67,4.0,11.0,62,0.00,,,0.00,0.000000,,2013-09-20 06:03:00,
2013-09-20 02:12:00,70.0,56.0,-100.00,ENE,67,4.0,11.0,62,0.00,,,0.00,0.000000,,2013-09-20 06:12:00,
2013-09-20 02:22:00,70.0,56.0,-100.00,ENE,67,4.0,11.0,62,0.00,,,0.00,0.000000,,2013-09-20 06:22:00,
2013-09-20 02:52:00,70.0,57.0,-100.00,ENE,68,4.0,8.0,63,0.00,,,0.00,0.000000,,2013-09-20 06:52:00,
2013-09-20 03:02:00,70.0,57.0,-100.00,ENE,68,4.0,8.0,63,0.00,,,0.00,0.000000,,2013-09-20 07:02:00,
2013-09-20 03:12:00,70.0,57.0,-100.00,ENE,68,4.0,8.0,63,0.00,,,0.00,0.000000,,2013-09-20 07:12:00,
2013-09-20 03:23:00,70.0,57.0,-100.00,ENE,68,4.0,8.0,63,0.00,,,0.00,0.000000,,2013-09-20 07:23:00,
2013-09-20 03:53:00,69.0,56.0,-100.00,NNE,31,2.0,7.0,63,0.00,,,0.00,0.000000,,2013-09-20 07:53:00,
2013-09-20 04:02:00,69.0,56.0,-100.00,NNE,31,2.0,7.0,63,0.00,,,0.00,0.000000,,2013-09-20 08:02:00,
2013-09-20 04:11:00,69.0,56.0,-100.00,NNE,31,2.0,7.0,63,0.00,,,0.00,0.000000,,2013-09-20 08:11:00,
2013-09-20 04:22:00,69.0,56.0,-100.00,NNE,31,2.0,7.0,63,0.00,,,0.00,0.000000,,2013-09-20 08:22:00,
2013-09-20 04:52:00,71.0,57.0,-100.00,ENE,57,3.0,6.0,61,0.00,,,0.00,0.000000,,2013-09-20 08:52:00,
2013-09-20 05:01:00,71.0,57.0,-100.00,ENE,57,3.0,6.0,61,0.00,,,0.00,0.000000,,2013-09-20 09:01:00,
2013-09-20 05:12:00,71.0,57.0,-100.00,ENE,57,3.0,6.0,61,0.00,,,0.00,0.000000,,2013-09-20 09:12:00,
2013-09-20 05:22:00,71.0,57.0,-100.00,ENE,57,3.0,6.0,61,0.00,,,0.00,0.000000,,2013-09-20 09:22:00,
2013-09-20 06:23:00,69.0,55.0,-100.00,NE,34,1.0,6.0,62,0.00,,,0.00,0.000000,,2013-09-20 10:23:00,
2013-09-20 06:53:00,70.0,56.0,-100.00,ENE,68,3.0,7.0,62,0.00,,,0.00,0.000000,,2013-09-20 10:53:00,
2013-09-20 07:03:00,70.0,56.0,-100.00,ENE,68,3.0,7.0,62,0.00,,,0.00,0.000000,,2013-09-20 11:03:00,
2013-09-20 07:12:00,70.0,56.0,-100.00,ENE,68,3.0,7.0,62,0.00,,,0.00,0.000000,,2013-09-20 11:12:00,
2013-09-20 07:23:00,70.0,56.0,-100.00,ENE,68,3.0,7.0,62,0.00,,,0.00,0.000000,,2013-09-20 11:23:00,
2013-09-20 07:52:00,71.0,56.0,-100.00,NE,37,2.0,6.0,60,0.00,,,0.00,13.000000,,2013-09-20 11:52:00,
2013-09-20 08:02:00,71.0,56.0,-100.00,NE,37,2.0,6.0,60,0.00,,,0.00,13.000000,,2013-09-20 12:02:00,
2013-09-20 08:12:00,71.0,56.0,-100.00,NE,37,2.0,6.0,60,0.00,,,0.00,13.000000,,2013-09-20 12:12:00,
2013-09-20 08:22:00,71.0,56.0,-100.00,NE,37,2.0,6.0,60,0.00,,,0.00,13.000000,,2013-09-20 12:22:00,
2013-09-20 08:52:00,73.0,57.0,-100.00,ENE,72,4.0,8.0,58,0.00,,,0.00,93.000000,,2013-09-20 12:52:00,
2013-09-20 09:02:00,73.0,57.0,-100.00,ENE,72,4.0,8.0,58,0.00,,,0.00,93.000000,,2013-09-20 13:02:00,
2013-09-20 09:12:00,73.0,57.0,-100.00,ENE,72,4.0,8.0,58,0.00,,,0.00,93.000000,,2013-09-20 13:12:00,
2013-09-20 09:22:00,73.0,57.0,-100.00,ENE,72,4.0,8.0,58,0.00,,,0.00,93.000000,,2013-09-20 13:22:00,
2013-09-20 09:53:00,74.0,57.0,-100.00,ENE,64,4.0,9.0,55,0.00,,,-99.99,84.000000,,2013-09-20 13:53:00,
2013-09-20 10:02:00,74.0,57.0,-100.00,ENE,64,4.0,9.0,55,0.00,,,-99.99,84.000000,,2013-09-20 14:02:00,
2013-09-20 10:11:00,74.0,57.0,-100.00,ENE,64,4.0,9.0,55,0.00,,,-99.99,84.000000,,2013-09-20 14:11:00,
2013-09-20 10:21:00,74.0,57.0,-100.00,ENE,64,4.0,9.0,55,0.00,,,-99.99,84.000000,,2013-09-20 14:21:00,
2013-09-20 10:52:00,75.0,58.0,-100.00,ENE,71,6.0,10.0,55,0.00,,,0.00,496.000000,,2013-09-20 14:52:00,
2013-09-20 11:02:00,75.0,58.0,-100.00,ENE,71,6.0,10.0,55,0.00,,,0.00,496.000000,,2013-09-20 15:02:00,
2013-09-20 11:12:00,75.0,58.0,-100.00,ENE,71,6.0,10.0,55,0.00,,,0.00,496.000000,,2013-09-20 15:12:00,
2013-09-20 11:22:00,75.0,58.0,-100.00,ENE,71,6.0,10.0,55,0.00,,,0.00,496.000000,,2013-09-20 15:22:00,
2013-09-20 11:54:00,78.0,59.0,-100.00,ENE,64,4.0,10.0,53,0.00,,,0.00,692.000000,,2013-09-20 15:54:00,
2013-09-20 12:04:00,78.0,59.0,-100.00,ENE,64,4.0,10.0,53,0.00,,,0.00,692.000000,,2013-09-20 16:04:00,
2013-09-20 12:13:00,78.0,59.0,-100.00,ENE,64,4.0,10.0,53,0.00,,,0.00,692.000000,,2013-09-20 16:13:00,
2013-09-20 12:23:00,78.0,59.0,-100.00,ENE,64,4.0,10.0,53,0.00,,,0.00,692.000000,,2013-09-20 16:23:00,
2013-09-20 12:53:00,78.0,59.0,-100.00,ENE,64,4.0,8.0,53,0.00,,,0.00,800.000000,,2013-09-20 16:53:00,
2013-09-20 13:03:00,78.0,59.0,-100.00,ENE,64,4.0,8.0,53,0.00,,,0.00,800.000000,,2013-09-20 17:03:00,
2013-09-20 13:13:00,78.0,59.0,-100.00,ENE,64,4.0,8.0,53,0.00,,,0.00,800.000000,,2013-09-20 17:13:00,
2013-09-20 13:24:00,78.0,59.0,-100.00,ENE,64,4.0,8.0,53,0.00,,,0.00,800.000000,,2013-09-20 17:24:00,
2013-09-20 13:53:00,78.0,60.0,-100.00,ENE,63,4.0,8.0,54,0.00,,,0.00,826.000000,,2013-09-20 17:53:00,
2013-09-20 14:02:00,78.0,60.0,-100.00,ENE,63,4.0,8.0,54,0.00,,,0.00,826.000000,,2013-09-20 18:02:00,
2013-09-20 14:12:00,78.0,60.0,-100.00,ENE,63,4.0,8.0,54,0.00,,,0.00,826.000000,,2013-09-20 18:12:00,
2013-09-20 14:22:00,78.0,60.0,-100.00,ENE,63,4.0,8.0,54,0.00,,,0.00,826.000000,,2013-09-20 18:22:00,
2013-09-20 14:52:00,78.0,59.0,-100.00,NE,52,4.0,9.0,53,0.00,,,0.00,802.000000,,2013-09-20 18:52:00,
2013-09-20 15:02:00,78.0,59.0,-100.00,NE,52,4.0,9.0,53,0.00,,,0.00,802.000000,,2013-09-20 19:02:00,
2013-09-20 15:12:00,78.0,59.0,-100.00,NE,52,4.0,9.0,53,0.00,,,0.00,802.000000,,2013-09-20 19:12:00,
2013-09-20 15:22:00,78.0,59.0,-100.00,NE,52,4.0,9.0,53,0.00,,,0.00,802.000000,,2013-09-20 19:22:00,
2013-09-20 15:53:00,78.0,59.0,-100.00,NE,55,4.0,8.0,52,0.00,,,0.00,718.000000,,2013-09-20 19:53:00,
2013-09-20 16:03:00,78.0,59.0,-100.00,NE,55,4.0,8.0,52,0.00,,,0.00,718.000000,,2013-09-20 20:03:00,
2013-09-20 16:12:00,78.0,59.0,-100.00,NE,55,4.0,8.0,52,0.00,,,0.00,718.000000,,2013-09-20 20:12:00,
2013-09-20 16:22:00,78.0,59.0,-100.00,NE,55,4.0,8.0,52,0.00,,,0.00,718.000000,,2013-09-20 20:22:00,
2013-09-20 16:52:00,77.0,59.0,-100.00,ENE,65,4.0,9.0,53,0.00,,,0.00,577.000000,,2013-09-20 20:52:00,
2013-09-20 17:02:00,77.0,59.0,-100.00,ENE,65,4.0,9.0,53,0.00,,,0.00,577.000000,,2013-09-20 21:02:00,
2013-09-20 17:12:00,77.0,59.0,-100.00,ENE,65,4.0,9.0,53,0.00,,,0.00,577.000000,,2013-09-20 21:12:00,
2013-09-20 17:21:00,77.0,59.0,-100.00,ENE,65,4.0,9.0,53,0.00,,,0.00,577.000000,,2013-09-20 21:21:00,
2013-09-20 17:55:00,76.0,58.0,-100.00,ENE,67,5.0,9.0,53,0.00,,,0.00,287.000000,,2013-09-20 21:55:00,
2013-09-20 18:04:00,76.0,58.0,-100.00,ENE,67,5.0,9.0,53,0.00,,,0.00,287.000000,,2013-09-20 22:04:00,
2013-09-20 18:14:00,76.0,58.0,-100.00,ENE,67,5.0,9.0,53,0.00,,,0.00,287.000000,,2013-09-20 22:14:00,
2013-09-20 18:24:00,76.0,58.0,-100.00,ENE,67,5.0,9.0,53,0.00,,,0.00,287.000000,,2013-09-20 22:24:00,
2013-09-20 18:53:00,74.0,57.0,-100.00,ENE,67,6.0,9.0,55,0.00,,,-99.99,118.000000,,2013-09-20 22:53:00,
2013-09-20 19:02:00,74.0,57.0,-100.00,ENE,67,6.0,9.0,55,0.00,,,-99.99,118.000000,,2013-09-20 23:02:00,
2013-09-20 19:13:00,74.0,57.0,-100.00,ENE,67,6.0,9.0,55,0.00,,,-99.99,118.000000,,2013-09-20 23:13:00,
2013-09-20 19:23:00,74.0,57.0,-100.00,ENE,67,6.0,9.0,55,0.00,,,-99.99,118.000000,,2013-09-20 23:23:00,
2013-09-20 19:53:00,73.0,57.0,-100.00,East,79,7.0,9.0,57,0.00,,,0.00,16.000000,,2013-09-20 23:53:00,
2013-09-20 20:02:00,73.0,57.0,-100.00,East,79,7.0,9.0,57,0.00,,,0.00,16.000000,,2013-09-21 00:02:00,
2013-09-20 20:11:00,73.0,57.0,-100.00,East,79,7.0,9.0,57,0.00,,,0.00,16.000000,,2013-09-21 00:11:00,
2013-09-20 20:22:00,73.0,57.0,-100.00,East,79,7.0,9.0,57,0.00,,,0.00,16.000000,,2013-09-21 00:22:00,
2013-09-20 20:52:00,73.0,57.0,-100.00,ENE,77,6.0,9.0,58,0.00,,,0.00,0.000000,,2013-09-21 00:52:00,
2013-09-20 21:02:00,73.0,57.0,-100.00,ENE,77,6.0,9.0,58,0.00,,,0.00,0.000000,,2013-09-21 01:02:00,
2013-09-20 21:12:00,73.0,57.0,-100.00,ENE,77,6.0,9.0,58,0.00,,,0.00,0.000000,,2013-09-21 01:12:00,
2013-09-20 21:22:00,73.0,57.0,-100.00,ENE,77,6.0,9.0,58,0.00,,,0.00,0.000000,,2013-09-21 01:22:00,
2013-09-20 21:52:00,73.0,58.0,-100.00,ENE,67,5.0,8.0,59,0.00,,,0.00,0.000000,,2013-09-21 01:52:00,
2013-09-20 22:03:00,73.0,58.0,-100.00,ENE,67,5.0,8.0,59,0.00,,,0.00,0.000000,,2013-09-21 02:03:00,
2013-09-20 22:12:00,73.0,58.0,-100.00,ENE,67,5.0,8.0,59,0.00,,,0.00,0.000000,,2013-09-21 02:12:00,
2013-09-20 22:22:00,73.0,58.0,-100.00,ENE,67,5.0,8.0,59,0.00,,,0.00,0.000000,,2013-09-21 02:22:00,
2013-09-20 22:52:00,73.0,58.0,-100.00,ENE,71,4.0,7.0,60,0.00,,,0.00,0.000000,,2013-09-21 02:52:00,
2013-09-20 23:02:00,73.0,58.0,-100.00,ENE,71,4.0,7.0,60,0.00,,,0.00,0.000000,,2013-09-21 03:02:00,
2013-09-20 23:12:00,73.0,58.0,-100.00,ENE,71,4.0,7.0,60,0.00,,,0.00,0.000000,,2013-09-21 03:12:00,
2013-09-20 23:22:00,73.0,58.0,-100.00,ENE,71,4.0,7.0,60,0.00,,,0.00,0.000000,,2013-09-21 03:22:00,
2013-09-20 23:55:00,70.0,58.0,-100.00,NNW,339,1.0,6.0,65,0.00,,,0.00,0.000000,,2013-09-21 03:55:00,